Imperial, NE

8:54 PM MDT on September 24, 2016 (GMT -0600)
Imperial Municipal

Weather History for KIML - March, 2012

Change the Weather History Date:

Saturday, March 3, 2012

  Actual Average Record
Temperature  
Mean Temperature 33 °F 36 °F  
Max Temperature 47 °F 50 °F 73 °F (1983)
Min Temperature 18 °F 22 °F -24 °F (1960)
Degree Days  
Heating Degree Days 32 29  
Month to date heating degree days 96 88  
Cooling Degree Days 0 0  
Month to date cooling degree days 0 0  
Year to date cooling degree days 0 0  
Moisture  
Dew Point 13 °F    
Average Humidity 49    
Maximum Humidity 73    
Minimum Humidity 25    
Precipitation  
Precipitation 0.00 in 0.02 in 0.90 in (1915)
Sea Level Pressure  
Sea Level Pressure 30.03 in    
Wind  
Wind Speed 15 mph (WNW)    
Max Wind Speed 33 mph    
Max Gust Speed 41 mph    
Visibility 10 miles    
Events      
T = Trace of Precipitation, MM = Missing Value Source: NWS Daily Summary

Daily Weather History Graph

Daily Weather History Graph

Search for Another Location

Airport or City:

Trip Planner

Search our weather history database for the weather conditions in past years. The results will help you decide how hot, cold, wet, or windy it might be!

Date:

Astronomy

Mar. 03, 2012 Rise Set
Actual Time 6:16 AM MST 5:40 PM MST
Civil Twilight 5:49 AM MST 6:08 PM MST
Nautical Twilight 5:17 AM MST 6:39 PM MST
Astronomical Twilight 4:45 AM MST 7:11 PM MST
Moon 12:51 PM MST (3/3) 2:56 AM MST (3/3)
Length of Visible Light 12h 19m
Length of Day
11h 24m
Waxing Gibbous, 76% of the Moon is Illuminated
Mar 3
Waxing Gibbous
Mar 8
Full
Mar 14
Last Quarter
Mar 22
New
Mar 30
First Quarter

Hourly Weather History & Observations

Time (MST) Temp. Windchill Dew Point Humidity Pressure Visibility Wind Dir Wind Speed Gust Speed Precip Events Conditions
12:53 AM 23.0 °F 11.1 °F 12.9 °F 65% 30.08 in 10.0 mi West 12.7 mph - N/A   Clear
1:53 AM 19.0 °F 7.5 °F 12.0 °F 74% 30.08 in 10.0 mi West 10.4 mph - N/A   Clear
2:53 AM 19.9 °F 7.9 °F 10.9 °F 68% 30.08 in 10.0 mi West 11.5 mph - N/A   Clear
3:53 AM 21.0 °F 8.1 °F 10.0 °F 63% 30.06 in 10.0 mi West 13.8 mph - N/A   Clear
4:53 AM 27.0 °F 16.1 °F 10.9 °F 51% 30.06 in 10.0 mi WNW 12.7 mph - N/A   Scattered Clouds
5:53 AM 27.0 °F 14.7 °F 10.9 °F 51% 30.07 in 10.0 mi WNW 16.1 mph 21.9 mph N/A   Overcast
6:53 AM 28.9 °F 17.3 °F 8.1 °F 41% 30.09 in 10.0 mi WNW 16.1 mph 26.5 mph N/A   Scattered Clouds
7:53 AM 30.9 °F 20.2 °F 9.0 °F 40% 30.11 in 10.0 mi WNW 15.0 mph - N/A   Scattered Clouds
8:53 AM 37.0 °F 26.7 °F 10.9 °F 34% 30.09 in 10.0 mi WNW 19.6 mph 29.9 mph N/A   Scattered Clouds
9:53 AM 39.9 °F 29.0 °F 10.9 °F 31% 30.08 in 10.0 mi NW 26.5 mph 38.0 mph N/A   Clear
10:53 AM 42.1 °F 31.3 °F 10.0 °F 27% 30.08 in 10.0 mi NNW 29.9 mph 35.7 mph N/A   Clear
11:53 AM 44.1 °F 35.2 °F 10.0 °F 25% 30.06 in 10.0 mi NW 23.0 mph 32.2 mph N/A   Clear
12:53 PM 45.0 °F 36.9 °F 10.9 °F 25% 30.04 in 10.0 mi NNW 20.7 mph 28.8 mph N/A   Mostly Cloudy
1:53 PM 44.1 °F 35.0 °F 12.9 °F 28% 30.04 in 10.0 mi NW 24.2 mph 32.2 mph N/A   Mostly Cloudy
2:53 PM 46.0 °F 36.9 °F 12.9 °F 26% 30.03 in 10.0 mi NW 28.8 mph 38.0 mph N/A   Mostly Cloudy
3:53 PM 46.0 °F 38.0 °F 12.9 °F 26% 30.01 in 10.0 mi NNW 21.9 mph 32.2 mph N/A   Clear
4:53 PM 45.0 °F 38.5 °F 12.9 °F 27% 29.99 in 10.0 mi NNW 13.8 mph - N/A   Partly Cloudy
5:53 PM 39.0 °F 36.8 °F 12.9 °F 34% 30.00 in 10.0 mi NW 3.5 mph - N/A   Partly Cloudy
6:53 PM 37.9 °F 34.4 °F 15.1 °F 39% 29.97 in 10.0 mi SW 4.6 mph - N/A   Overcast
7:53 PM 35.1 °F - 15.1 °F 44% 29.98 in 10.0 mi Calm Calm - N/A   Overcast
8:53 PM 35.1 °F 32.2 °F 16.0 °F 46% 29.96 in 10.0 mi South 3.5 mph - N/A   Overcast
9:53 PM 44.1 °F 37.1 °F 21.9 °F 42% 29.93 in 10.0 mi WNW 15.0 mph - N/A   Overcast
10:53 PM 42.1 °F 34.9 °F 19.9 °F 41% 29.92 in 10.0 mi West 13.8 mph - N/A   Partly Cloudy
11:53 PM 37.9 °F 30.9 °F 21.0 °F 51% 29.92 in 10.0 mi West 10.4 mph - N/A   Overcast